Ana Sayfa
METAR-TAF:

METAR-TAF

Havaalanları :

Taos Regional Airport

Taos, New Mexico, Amerika Birleşik Devletleri

Enlem: 36-27N, Boylam: 105-40W, yükseklik: 2161 m

Güncel hava durumu gözlemi

Rapor saat 04:13 UTC de 27 dakika önce yapıldı.
Sakin rüzgar
Sıcaklık 1°C
Nem 93%
Basınç 1016 hPa
Görüş mesafesi: 16.1 km
400 ft yükseklikte çok bulutlu

METAR: KSKX 220413Z AUTO 00000KT 10SM OVC004 01/00 A3001 RMK AO2 FZRANO

Saat: 21:40 (04:40 UTC)


TAF: eksik

4.000'den fazla havaalanı için hava durumu gözlemleri ve tahminleri (METAR ve TAF raporları).

Kullanılabilir istasyonlar harita üzerinde sarı ve kırmızı noktalarla gösterilir.

İstasyonun adını görmek için fareyi noktanın üzerinde gezdirin.

Sonrasında hava gözlem ve tahminlerini görmek için tıklayın.

Haritayı değiştirmek için: yaklaştırmak için siyah artı işaretli yeşil düğmeye ve uzaklaştırmak için de eksi işaretli düğmeye hızla tıklayın; bitişik haritalar için yeşil okları kullanın.


METAR-TAF: